• In Deutschland
  • Länderverzeichnis
  • Für 7 Tage
  • Wassertemperatur
  • Satellitenkarten
  • Wetterkarte
  • Widgets
  • user-avatar
    Anmelden

    Stündliche Wetter Shaki

    Heute, 28 Juni, Mittwoch

    Zeit Temperatur Niederschläge Wind Luftdruck Luftfeuchtigkeit
    00:00 +23°C° 0 mm 2 m/S 733 mmHg 60%
    01:00 +23°C° 0 mm 2 m/S 733 mmHg 61%
    02:00 +22°C° 0 mm 1 m/S 733 mmHg 62%
    03:00 +22°C° 0 mm 1 m/S 732 mmHg 58%
    04:00 +23°C° 0 mm 1 m/S 733 mmHg 57%
    05:00 +25°C° 0 mm 1 m/S 733 mmHg 57%
    06:00 +26°C° 0 mm 1 m/S 733 mmHg 57%
    07:00 +28°C° 0 mm 1 m/S 733 mmHg 52%
    08:00 +29°C° 0 mm 1 m/S 733 mmHg 47%
    09:00 +32°C° 0 mm 2 m/S 733 mmHg 41%
    10:00 +34°C° 0 mm 2 m/S 733 mmHg 39%
    11:00 +35°C° 0 mm 2 m/S 732 mmHg 36%
    12:00 +36°C° 0 mm 2 m/S 732 mmHg 33%
    13:00 +36°C° 0 mm 3 m/S 732 mmHg 32%
    14:00 +37°C° 0 mm 3 m/S 732 mmHg 31%
    15:00 +37°C° 0 mm 3 m/S 731 mmHg 30%
    16:00 +36°C° 0 mm 3 m/S 731 mmHg 32%
    17:00 +36°C° 0 mm 2 m/S 731 mmHg 34%
    18:00 +35°C° 0 mm 2 m/S 731 mmHg 36%
    19:00 +31°C° 0 mm 2 m/S 731 mmHg 42%
    20:00 +28°C° 0 mm 2 m/S 731 mmHg 48%
    21:00 +26°C° 0 mm 2 m/S 732 mmHg 54%
    22:00 +25°C° 0 mm 2 m/S 732 mmHg 55%
    23:00 +24°C° 0 mm 1 m/S 732 mmHg 57%

    Morgen, 29 Juni, Donnerstag

    Zeit Temperatur Niederschläge Wind Luftdruck Luftfeuchtigkeit
    00:00 +23°C° 0 mm 1 m/S 732 mmHg 58%
    01:00 +23°C° 0 mm 1 m/S 732 mmHg 59%
    02:00 +22°C° 0 mm 1 m/S 732 mmHg 59%
    03:00 +22°C° 0 mm 1 m/S 731 mmHg 60%
    04:00 +24°C° 0 mm 1 m/S 732 mmHg 55%
    05:00 +25°C° 0 mm 1 m/S 732 mmHg 49%
    06:00 +27°C° 0 mm 1 m/S 732 mmHg 44%
    07:00 +29°C° 0 mm 1 m/S 732 mmHg 38%
    08:00 +31°C° 0 mm 1 m/S 732 mmHg 33%
    09:00 +34°C° 0 mm 2 m/S 732 mmHg 27%
    10:00 +35°C° 0 mm 2 m/S 732 mmHg 26%
    11:00 +36°C° 0 mm 2 m/S 732 mmHg 24%
    12:00 +37°C° 0 mm 2 m/S 732 mmHg 23%
    13:00 +37°C° 0 mm 2 m/S 731 mmHg 23%
    14:00 +37°C° 0 mm 2 m/S 731 mmHg 22%
    15:00 +37°C° 0 mm 2 m/S 731 mmHg 22%
    16:00 +37°C° 0 mm 2 m/S 731 mmHg 24%
    17:00 +36°C° 0 mm 2 m/S 731 mmHg 26%
    18:00 +34°C° 0 mm 1 m/S 731 mmHg 28%
    19:00 +31°C° 0 mm 2 m/S 731 mmHg 34%
    20:00 +28°C° 0 mm 2 m/S 731 mmHg 39%
    21:00 +25°C° 0 mm 2 m/S 731 mmHg 44%
    22:00 +25°C° 0 mm 2 m/S 731 mmHg 45%
    23:00 +24°C° 0 mm 1 m/S 731 mmHg 46%

    übermorgen, 30 Juni, Freitag

    Zeit Temperatur Niederschläge Wind Luftdruck Luftfeuchtigkeit
    00:00 +24°C° 0 mm 1 m/S 731 mmHg 46%
    01:00 +23°C° 0 mm 1 m/S 731 mmHg 47%
    02:00 +23°C° 0 mm 1 m/S 731 mmHg 47%
    03:00 +22°C° 0 mm 1 m/S 731 mmHg 48%
    04:00 +24°C° 0 mm 1 m/S 732 mmHg 47%
    05:00 +25°C° 0 mm 1 m/S 732 mmHg 45%
    06:00 +27°C° 0 mm 2 m/S 732 mmHg 44%
    07:00 +29°C° 0 mm 2 m/S 732 mmHg 39%
    08:00 +30°C° 0 mm 2 m/S 732 mmHg 33%
    09:00 +33°C° 0 mm 3 m/S 733 mmHg 27%
    10:00 +34°C° 0,3 mm 2 m/S 732 mmHg 26%
    11:00 +35°C° 0,3 mm 2 m/S 732 mmHg 25%
    12:00 +35°C° 0,3 mm 1 m/S 732 mmHg 24%
    13:00 +35°C° 0,3 mm 1 m/S 732 mmHg 23%
    14:00 +35°C° 0,3 mm 1 m/S 732 mmHg 23%
    15:00 +36°C° 0,3 mm 1 m/S 732 mmHg 22%
    16:00 +35°C° 0,2 mm 1 m/S 732 mmHg 24%
    17:00 +35°C° 0,2 mm 2 m/S 732 mmHg 25%
    18:00 +35°C° 0,2 mm 2 m/S 732 mmHg 26%
    19:00 +31°C° 0,1 mm 2 m/S 732 mmHg 30%
    20:00 +29°C° 0,1 mm 2 m/S 733 mmHg 33%
    21:00 +27°C° 0,1 mm 3 m/S 733 mmHg 37%
    22:00 +26°C° 0 mm 3 m/S 733 mmHg 39%
    23:00 +25°C° 0 mm 2 m/S 733 mmHg 41%

    1 Juli, Samstag

    Zeit Temperatur Niederschläge Wind Luftdruck Luftfeuchtigkeit
    00:00 +25°C° 0 mm 2 m/S 734 mmHg 43%
    01:00 +24°C° 0 mm 2 m/S 734 mmHg 44%
    02:00 +24°C° 0 mm 2 m/S 734 mmHg 45%
    03:00 +24°C° 0 mm 2 m/S 734 mmHg 46%
    04:00 +25°C° 0 mm 2 m/S 734 mmHg 45%
    05:00 +26°C° 0 mm 2 m/S 734 mmHg 45%
    06:00 +27°C° 0 mm 2 m/S 735 mmHg 44%
    07:00 +29°C° 0 mm 2 m/S 735 mmHg 38%
    08:00 +31°C° 0 mm 2 m/S 735 mmHg 32%
    09:00 +34°C° 0 mm 2 m/S 735 mmHg 26%
    10:00 +34°C° 0 mm 1 m/S 735 mmHg 23%
    11:00 +35°C° 0 mm 1 m/S 735 mmHg 21%
    12:00 +36°C° 0 mm 1 m/S 735 mmHg 19%
    13:00 +38°C° 0 mm 2 m/S 734 mmHg 19%
    14:00 +38°C° 0 mm 2 m/S 734 mmHg 18%
    15:00 +38°C° 0 mm 3 m/S 734 mmHg 17%
    16:00 +37°C° 0 mm 3 m/S 734 mmHg 19%
    17:00 +37°C° 0 mm 3 m/S 734 mmHg 21%
    18:00 +36°C° 0 mm 3 m/S 734 mmHg 23%
    19:00 +33°C° 0 mm 3 m/S 734 mmHg 27%
    20:00 +29°C° 0 mm 2 m/S 734 mmHg 31%
    21:00 +27°C° 0 mm 2 m/S 734 mmHg 35%
    22:00 +26°C° 0 mm 2 m/S 734 mmHg 37%
    23:00 +25°C° 0 mm 2 m/S 734 mmHg 38%

    2 Juli, Sonntag

    Zeit Temperatur Niederschläge Wind Luftdruck Luftfeuchtigkeit
    00:00 +24°C° 0 mm 2 m/S 734 mmHg 40%
    01:00 +24°C° 0 mm 1 m/S 734 mmHg 39%
    02:00 +23°C° 0 mm 1 m/S 734 mmHg 39%
    03:00 +23°C° 0 mm 1 m/S 734 mmHg 38%
    04:00 +24°C° 0 mm 1 m/S 734 mmHg 37%
    05:00 +26°C° 0 mm 1 m/S 734 mmHg 36%
    06:00 +28°C° 0 mm 1 m/S 734 mmHg 35%
    07:00 +30°C° 0 mm 1 m/S 734 mmHg 29%
    08:00 +32°C° 0 mm 1 m/S 734 mmHg 24%
    09:00 +34°C° 0 mm 1 m/S 734 mmHg 18%
    10:00 +36°C° 0 mm 2 m/S 734 mmHg 17%
    11:00 +37°C° 0 mm 2 m/S 733 mmHg 16%
    12:00 +38°C° 0 mm 2 m/S 733 mmHg 15%
    13:00 +39°C° 0 mm 3 m/S 732 mmHg 15%
    14:00 +39°C° 0 mm 3 m/S 732 mmHg 15%
    15:00 +41°C° 0 mm 4 m/S 731 mmHg 15%
    16:00 +40°C° 0 mm 4 m/S 731 mmHg 17%
    17:00 +38°C° 0 mm 4 m/S 731 mmHg 19%
    18:00 +37°C° 0 mm 4 m/S 731 mmHg 21%
    19:00 +34°C° 0 mm 3 m/S 731 mmHg 24%
    20:00 +31°C° 0 mm 3 m/S 731 mmHg 27%
    21:00 +28°C° 0 mm 3 m/S 731 mmHg 30%
    22:00 +27°C° 0 mm 3 m/S 731 mmHg 31%
    23:00 +27°C° 0 mm 2 m/S 731 mmHg 33%

    3 Juli, Montag

    Zeit Temperatur Niederschläge Wind Luftdruck Luftfeuchtigkeit
    00:00 +26°C° 0 mm 2 m/S 731 mmHg 35%
    01:00 +26°C° 0 mm 2 m/S 731 mmHg 36%
    02:00 +25°C° 0 mm 2 m/S 731 mmHg 38%
    03:00 +24°C° 0 mm 2 m/S 730 mmHg 39%
    04:00 +26°C° 0 mm 2 m/S 730 mmHg 38%
    05:00 +27°C° 0 mm 2 m/S 730 mmHg 36%
    06:00 +28°C° 0 mm 2 m/S 730 mmHg 35%
    07:00 +30°C° 0 mm 2 m/S 730 mmHg 30%
    08:00 +32°C° 0 mm 2 m/S 730 mmHg 25%
    09:00 +36°C° 0 mm 2 m/S 730 mmHg 19%
    10:00 +37°C° 0 mm 2 m/S 729 mmHg 18%
    11:00 +38°C° 0 mm 2 m/S 729 mmHg 17%
    12:00 +39°C° 0 mm 2 m/S 728 mmHg 16%
    13:00 +39°C° 0 mm 2 m/S 728 mmHg 15%
    14:00 +40°C° 0 mm 2 m/S 727 mmHg 15%
    15:00 +40°C° 0 mm 2 m/S 727 mmHg 15%
    16:00 +39°C° 0 mm 2 m/S 727 mmHg 17%
    17:00 +38°C° 0 mm 2 m/S 727 mmHg 20%
    18:00 +37°C° 0 mm 2 m/S 727 mmHg 22%
    19:00 +35°C° 0 mm 2 m/S 727 mmHg 25%
    20:00 +31°C° 0 mm 2 m/S 727 mmHg 29%
    21:00 +28°C° 0 mm 2 m/S 728 mmHg 33%
    22:00 +28°C° 0 mm 2 m/S 728 mmHg 34%
    23:00 +27°C° 0 mm 2 m/S 728 mmHg 36%
    Mehr zeigen